Regional Weather Roundup
Issued by NWS

Home | Current Version | Previous Version | Graphics & Text | Print | Product List | Glossary On
Versions: 1 2 3 4 5 6 7 8 9 10 11 12 13 14 15 16 17 18 19 20 21 22 23 24 25 26 27 28 29 30 31 32 33 34 35 36 37 38 39 40 41 42 43 44 45 46 47 48 49 50
000
ASUS45 KABQ 021810
RWRNM
NEW MEXICO REGIONAL WEATHER ROUNDUP
NATIONAL WEATHER SERVICE ALBUQUERQUE NM
1200 PM MDT SUN AUG 02 2015

NOTE: "FAIR" MEANS FEW OR NO CLOUDS BELOW 12,000 FEET AGL WITH NO
       SIGNIFICANT WEATHER OR OBSTRUCTIONS TO VISION.

      THIS PRODUCT IS RELEASED AS TWO VERSIONS.  ONE VERSION NEAR
      THE TOP OF THE HOUR CONTAINING PRELIMINARY DATA FROM ALBUQUERQUE
      AND OTHER STATIONS.  A FINAL VERSION WITH ADDITIONAL DATA IS
      ISSUED ABOUT 10 MINUTES AFTER THE HOUR.

NMZ501-503-504-510>518-021900-
NORTHWEST PLATEAU/NORTHCENTRAL MOUNTAINS

CITY           SKY/WX    TMP DP  RH WIND       PRES   REMARKS
FARMINGTON     SUNNY     75  56  51 E5        30.17F
6HR MIN TEMP:  60; 6HR MAX TEMP:  75;

LOS ALAMOS     PTSUNNY   69  57  65 E3        30.31S
SANTA FE       MOSUNNY   79  51  37 N9        30.22F
6HR MIN TEMP:  58; 6HR MAX TEMP:  79;

TAOS           PTSUNNY  N/A N/A N/A SW6       30.29F
ANGEL FIRE     FAIR      69  54  58 SW9       30.35F

$$
NMZ402-403-502-505>509-021900-
WESTCENTRAL MOUNTAINS/SOUTHWEST MOUNTAINS

CITY           SKY/WX    TMP DP  RH WIND       PRES   REMARKS
GALLUP         PTSUNNY   73  53  49 SW5       30.25F
6HR MIN TEMP:  59; 6HR MAX TEMP:  73;

GRANTS         MOSUNNY   73  57  57 NW5       30.26F
SILVER CITY      N/A     79  55  44 S6        30.20F

$$
NMZ407-409-411-412-021900-
SOUTHERN DESERTS

CITY           SKY/WX    TMP DP  RH WIND       PRES   REMARKS
LORDSBURG      FAIR      81  59  47 CALM      30.11F
DEMING         PTSUNNY   86  56  35 VRB5      30.10F
6HR MIN TEMP:  66; 6HR MAX TEMP:  87;

LAS CRUCES     SUNNY     83  58  42 SW7       30.12F
HOLLOMAN AFB   SUNNY     89  55  31 VRB5      30.06F
ALAMOGORDO     MOSUNNY   86  54  32 S8        30.09F
T OR C         SUNNY     87  56  34 S7        30.11F
6HR MIN TEMP:  67; 6HR MAX TEMP:  87;


$$
NMZ519>523-021900-
CENTRAL VALLEYS/CENTRAL HIGHLANDS

CITY           SKY/WX    TMP DP  RH WIND       PRES   REMARKS
ALBUQUERQUE    MOSUNNY   80  54  40 W6        30.18F
6HR MIN TEMP:  67; 6HR MAX TEMP:  81;

DOUBLE EAGLE   MOSUNNY   77  59  53 VRB6      30.21F
MORIARTY ARPT    N/A     79  53  39 W7        30.23S
6HR MIN TEMP:  56; 6HR MAX TEMP:  79;

CLINES CORNERS MOSUNNY   75  56  51 W13       30.26F
6HR MIN TEMP:  57; 6HR MAX TEMP:  75;

BELEN          FAIR      80  54  40 CALM      30.17F
6HR MIN TEMP:  63; 6HR MAX TEMP:  80; 6HR PCP:  0.01;

SOCORRO        FAIR      81  56  42 E5        30.14F
6HR MIN TEMP:  65; 6HR MAX TEMP:  81;


$$
NMZ524>526-539-540-021900-
SOUTHCENTRAL MOUNTAINS

CITY           SKY/WX    TMP DP  RH WIND       PRES   REMARKS
RUIDOSO          N/A    N/A N/A N/A MISG        N/A

$$
NMZ527>531-021900-
NORTHEAST HIGHLANDS/NORTHEAST PLAINS

CITY           SKY/WX    TMP DP  RH WIND       PRES   REMARKS
LAS VEGAS      SUNNY     75  51  43 CALM      30.24S
6HR MIN TEMP:  56; 6HR MAX TEMP:  77;

RATON          SUNNY     80  52  37 E5        30.18F
6HR MIN TEMP:  55; 6HR MAX TEMP:  80;

CLAYTON        SUNNY     85  58  39 CALM      30.09F
6HR MIN TEMP:  65; 6HR MAX TEMP:  86;


$$
NMZ532>537-021900-
EASTCENTRAL PLAINS

CITY           SKY/WX    TMP DP  RH WIND       PRES   REMARKS
TUCUMCARI      SUNNY     85  60  42 W8        30.04F
6HR MIN TEMP:  66; 6HR MAX TEMP:  85;

CANNON AFB     PTSUNNY   85  62  44 SW12G17   30.07F
6HR MIN TEMP:  65; 6HR MAX TEMP:  85;

CLOVIS AIRPORT SUNNY     88  61  40 S13G20    30.08F

$$
NMZ028-029-538-021900-
SOUTHEAST PLAINS

CITY           SKY/WX    TMP DP  RH WIND       PRES   REMARKS
ROSWELL        SUNNY     91  58  32 CALM      30.02F
6HR MIN TEMP:  70; 6HR MAX TEMP:  93;

ARTESIA        SUNNY     93  59  31 CALM      30.02F
CARLSBAD       SUNNY     95  58  28 VRB3G16   29.99F
6HR MIN TEMP:  69; 6HR MAX TEMP:  96;

HOBBS          SUNNY     90  63  40 S10       30.05F


$$


USA.gov is the U.S. government's official web portal to all federal, state and local government web resources and services.